TimeCDT,TemperatureF,Dew PointF,Humidity,Sea Level PressureIn,VisibilityMPH,Wind Direction,Wind SpeedMPH,Gust SpeedMPH,PrecipitationIn,Events,Conditions,WindDirDegrees,DateUTC
12:15 AM,74.3,66.2,76,30.00,10.0,Calm,Calm,-,N/A,,Clear,0,2013-09-09 05:15:00
12:35 AM,74.7,65.7,73,30.00,10.0,SSW,4.6,-,N/A,,Clear,200,2013-09-09 05:35:00
12:55 AM,75.7,64.8,69,30.00,10.0,SSW,4.6,-,N/A,,Clear,200,2013-09-09 05:55:00
1:15 AM,75.6,65.1,70,30.00,10.0,SSW,4.6,-,N/A,,Clear,200,2013-09-09 06:15:00
1:35 AM,73.8,65.5,75,30.00,10.0,SSW,5.8,-,N/A,,Clear,200,2013-09-09 06:35:00
1:55 AM,74.3,65.5,74,30.00,10.0,South,5.8,-,N/A,,Clear,190,2013-09-09 06:55:00
2:15 AM,74.3,65.5,74,30.00,10.0,South,5.8,-,N/A,,Clear,190,2013-09-09 07:15:00
2:35 AM,72.9,65.7,78,30.00,10.0,SSW,4.6,-,N/A,,Clear,200,2013-09-09 07:35:00
2:55 AM,72.5,66.2,81,30.00,10.0,SSW,3.5,-,N/A,,Clear,200,2013-09-09 07:55:00
3:15 AM,71.2,67.1,87,30.00,10.0,SSW,4.6,-,N/A,,Clear,200,2013-09-09 08:15:00
3:35 AM,71.6,67.3,86,30.00,10.0,SSW,4.6,-,N/A,,Clear,200,2013-09-09 08:35:00
3:55 AM,70.9,68.0,91,30.01,10.0,SW,3.5,-,N/A,,Clear,220,2013-09-09 08:55:00
4:15 AM,70.9,68.4,92,30.01,10.0,Calm,Calm,-,N/A,,Clear,0,2013-09-09 09:15:00
4:35 AM,70.7,68.9,94,30.01,10.0,Calm,Calm,-,N/A,,Clear,0,2013-09-09 09:35:00
4:55 AM,70.7,68.7,93,30.01,10.0,Calm,Calm,-,N/A,,Clear,0,2013-09-09 09:55:00
5:15 AM,69.3,68.9,99,30.01,10.0,Calm,Calm,-,N/A,,Clear,0,2013-09-09 10:15:00
5:35 AM,69.1,69.1,100,30.02,10.0,Calm,Calm,-,N/A,,Clear,0,2013-09-09 10:35:00
5:55 AM,67.8,67.8,100,30.03,7.0,Calm,Calm,-,N/A,,Clear,0,2013-09-09 10:55:00
6:15 AM,67.5,67.5,100,30.03,7.0,Calm,Calm,-,N/A,,Clear,0,2013-09-09 11:15:00
6:35 AM,69.1,69.1,100,30.04,10.0,Calm,Calm,-,N/A,,Clear,0,2013-09-09 11:35:00
6:55 AM,67.3,67.3,100,30.04,7.0,Calm,Calm,-,N/A,,Clear,0,2013-09-09 11:55:00
7:15 AM,67.5,67.5,100,30.05,5.0,Calm,Calm,-,N/A,,Clear,0,2013-09-09 12:15:00
7:35 AM,68.4,68.4,100,30.06,7.0,Calm,Calm,-,N/A,,Clear,0,2013-09-09 12:35:00
7:55 AM,69.1,69.1,100,30.06,7.0,Calm,Calm,-,N/A,,Clear,0,2013-09-09 12:55:00
8:15 AM,71.4,71.1,99,30.07,7.0,Calm,Calm,-,N/A,,Clear,0,2013-09-09 13:15:00
8:35 AM,74.8,69.1,82,30.07,10.0,Calm,Calm,-,N/A,,Clear,0,2013-09-09 13:35:00
8:55 AM,77.9,69.1,74,30.08,10.0,Calm,Calm,-,N/A,,Clear,0,2013-09-09 13:55:00
9:15 AM,81.0,69.4,68,30.08,10.0,Calm,Calm,-,N/A,,Clear,0,2013-09-09 14:15:00
9:35 AM,83.3,68.4,61,30.09,10.0,Calm,Calm,-,N/A,,Clear,0,2013-09-09 14:35:00
9:55 AM,84.6,67.5,56,30.10,10.0,North,3.5,-,N/A,,Clear,350,2013-09-09 14:55:00
10:15 AM,85.3,66.6,53,30.10,10.0,Calm,Calm,-,N/A,,Clear,0,2013-09-09 15:15:00
10:35 AM,86.4,64.4,48,30.10,10.0,Calm,Calm,-,N/A,,Clear,0,2013-09-09 15:35:00
10:55 AM,88.0,62.8,43,30.10,10.0,Calm,Calm,-,N/A,,Clear,0,2013-09-09 15:55:00
11:15 AM,89.2,61.5,39,30.10,10.0,South,5.8,-,N/A,,Clear,190,2013-09-09 16:15:00
11:35 AM,90.5,59.2,35,30.09,10.0,South,6.9,-,N/A,,Clear,180,2013-09-09 16:35:00
11:55 AM,90.5,59.2,35,30.09,10.0,SSE,9.2,-,N/A,,Clear,150,2013-09-09 16:55:00
12:15 PM,91.0,59.5,35,30.09,10.0,SSW,8.1,-,N/A,,Clear,200,2013-09-09 17:15:00
12:35 PM,91.2,59.7,35,30.08,10.0,SSE,4.6,-,N/A,,Clear,150,2013-09-09 17:35:00
12:55 PM,92.3,59.4,33,30.08,10.0,East,6.9,-,N/A,,Clear,100,2013-09-09 17:55:00
1:15 PM,92.8,60.1,33,30.07,10.0,SSE,9.2,-,N/A,,Clear,160,2013-09-09 18:15:00
1:35 PM,92.3,58.5,32,30.07,10.0,SW,8.1,-,N/A,,Scattered Clouds,220,2013-09-09 18:35:00
1:55 PM,95.0,57.0,28,30.06,10.0,SSE,12.7,-,N/A,,Scattered Clouds,150,2013-09-09 18:55:00
2:15 PM,95.0,57.2,28,30.05,10.0,South,11.5,-,N/A,,Scattered Clouds,190,2013-09-09 19:15:00
2:35 PM,96.1,57.2,27,30.04,10.0,SE,5.8,-,N/A,,Mostly Cloudy,130,2013-09-09 19:35:00
2:55 PM,95.4,56.5,27,30.04,10.0,East,8.1,-,N/A,,Scattered Clouds,100,2013-09-09 19:55:00
3:15 PM,95.2,55.9,27,30.02,10.0,ESE,5.8,-,N/A,,Scattered Clouds,120,2013-09-09 20:15:00
3:35 PM,97.0,55.2,25,30.02,10.0,SE,6.9,-,N/A,,Scattered Clouds,140,2013-09-09 20:35:00
3:55 PM,97.3,56.5,25,30.01,10.0,SE,3.5,-,N/A,,Scattered Clouds,130,2013-09-09 20:55:00
4:15 PM,96.4,55.8,25,30.01,10.0,SE,6.9,-,N/A,,Scattered Clouds,140,2013-09-09 21:15:00
4:35 PM,97.0,54.9,24,30.01,10.0,SE,4.6,-,N/A,,Scattered Clouds,130,2013-09-09 21:35:00
4:55 PM,96.6,55.0,25,30.00,10.0,SSW,10.4,-,N/A,,Mostly Cloudy,210,2013-09-09 21:55:00
5:15 PM,95.9,55.6,26,30.00,10.0,South,10.4,-,N/A,,Scattered Clouds,190,2013-09-09 22:15:00
5:35 PM,95.5,54.7,25,30.00,10.0,SSW,6.9,-,N/A,,Clear,200,2013-09-09 22:35:00
5:55 PM,95.0,55.8,27,30.00,10.0,South,6.9,-,N/A,,Clear,180,2013-09-09 22:55:00
6:15 PM,94.6,55.8,27,30.00,10.0,South,5.8,-,N/A,,Clear,170,2013-09-09 23:15:00
6:35 PM,94.1,56.1,28,30.00,10.0,South,5.8,-,N/A,,Clear,170,2013-09-09 23:35:00
6:55 PM,92.1,57.6,31,30.00,10.0,South,5.8,-,N/A,,Clear,190,2013-09-09 23:55:00
7:15 PM,89.6,58.3,35,30.00,10.0,South,6.9,-,N/A,,Clear,180,2013-09-10 00:15:00
7:35 PM,87.1,60.4,41,30.00,10.0,South,3.5,-,N/A,,Clear,180,2013-09-10 00:35:00
7:55 PM,84.7,61.7,46,30.01,10.0,Calm,Calm,-,N/A,,Clear,0,2013-09-10 00:55:00
8:15 PM,84.0,62.1,47,30.01,10.0,South,4.6,-,N/A,,Clear,170,2013-09-10 01:15:00
8:35 PM,81.5,63.5,54,30.02,10.0,SSE,4.6,-,N/A,,Clear,160,2013-09-10 01:35:00
8:55 PM,80.1,64.0,58,30.03,10.0,South,4.6,-,N/A,,Clear,180,2013-09-10 01:55:00
9:15 PM,80.6,63.7,56,30.04,10.0,South,5.8,-,N/A,,Clear,180,2013-09-10 02:15:00
9:35 PM,80.1,63.7,57,30.04,10.0,South,4.6,-,N/A,,Clear,180,2013-09-10 02:35:00
9:55 PM,78.6,64.4,62,30.04,10.0,South,3.5,-,N/A,,Clear,180,2013-09-10 02:55:00
10:15 PM,78.3,64.6,63,30.05,10.0,South,4.6,-,N/A,,Clear,190,2013-09-10 03:15:00
10:35 PM,78.1,64.6,63,30.05,10.0,South,4.6,-,N/A,,Clear,180,2013-09-10 03:35:00
10:55 PM,76.5,65.5,69,30.05,10.0,Calm,Calm,-,N/A,,Clear,0,2013-09-10 03:55:00
11:15 PM,76.1,64.9,68,30.06,10.0,South,3.5,-,N/A,,Clear,190,2013-09-10 04:15:00
11:35 PM,76.3,64.8,67,30.05,10.0,South,3.5,-,N/A,,Clear,190,2013-09-10 04:35:00
11:55 PM,76.5,64.4,66,30.05,10.0,Calm,Calm,-,N/A,,Clear,0,2013-09-10 04:55:00